Notices

What's New in latest Release from April 7th, 2021:

- Updated Glossary, including Speed of Maximum Gust, and Total Hourly Precipitation

- Updated national and regional climate services offices contacts and prices information

- Addition of station inventory lists for 1981-2010, 1971-2000, and 1961-1990 Normals.

If you haven't already, please take our survey and provide feedback about our website: https://eccc.sondage-survey.ca/f/LanguageSelection.aspx?s=442ca660-fcf1-47c0-95a9-59707d6fd709

Hourly Data Report for November 23, 2019

MIRAMICHI RCS
NEW BRUNSWICK
Current Station Operator: ECCC - MSC

47°00'34.000" N
65°27'54.000" W
33.00 m
8100989
71744
ACQ

Download Data

Hourly Data (November 2019)
Hourly Data Report for November 23, 2019
TIME
LST
Temp Definition
°C
Dew Point Definition
°C
Rel Hum Definition
%
Precip. Amount Definition
mm

Wind Dir Definition
10's deg

Wind Spd Definition
km/h
Visibility Definition
km
Stn Press Definition
kPa
Hmdx Definition


Wind Chill Definition


Weather Definition


00:00 1.5 0.9 96 0.2 24 11   98.57     LegendNANA
01:00 1.4 0.7 95 0.0 26 13   98.52     LegendNANA
02:00 1.1 0.4 95 0.0 25 11   98.54     LegendNANA
03:00 1.2 -1.1 84 0.0 28 18   98.63     LegendNANA
04:00 0.5 -2.5 80 0.0 28 20   98.71     LegendNANA
05:00 -0.2 -4.1 75 0.0 28 27   98.82   -6 LegendNANA
06:00 -0.9 -5.1 73 0.0 29 25   98.90   -7 LegendNANA
07:00 -1.5 -6.1 71 0.0 28 30   98.97   -8 LegendNANA
08:00 -2.1 -6.8 70 0.0 28 29   99.05   -9 LegendNANA
09:00 -2.2 -7.2 69 0.0 28 34   99.10   -10 LegendNANA
10:00 -1.9 -7.0 68 0.0 29 28   99.22   -9 LegendNANA
11:00 -1.8 -7.2 67 0.0 28 29   99.29   -9 LegendNANA
12:00 -1.2 -7.1 64 0.0 28 26   99.33   -8 LegendNANA
13:00 -1.1 -7.5 62 0.0 28 29   99.40   -8 LegendNANA
14:00 -0.6 -7.2 61 0.0 27 25   99.48   -7 LegendNANA
15:00 -0.4 -6.6 63 0.0 28 21   99.58   -6 LegendNANA
16:00 -1.1 -7.5 62 0.0 27 28   99.65   -8 LegendNANA
17:00 -1.7 -7.6 64 0.0 26 24   99.76   -8 LegendNANA
18:00 -2.3 -7.9 66 0.0 26 11   99.83   -6 LegendNANA
19:00 -2.7 -7.9 67 0.0 26 15   99.91   -8 LegendNANA
20:00 -2.8 -8.2 66 0.0 26 19   99.98   -9 LegendNANA
21:00 -3.1 -8.4 67 0.0 26 19   100.04   -9 LegendNANA
22:00 -3.5 -8.3 69 0.0 26 17   100.04   -9 LegendNANA
23:00 -3.9 -8.3 72 0.0 27 15   100.01   -9 LegendNANA

Notes on Data Quality.

Legend

  • E = Estimated
  • M = Missing
  • NA = Not Available*
  • [empty] = Indicates an unobserved value
Date modified: